Location: *
(34.0486°S, 61.7880°E)
Time: 16:50:52
(UTC+00:00)

Lacrosse 4 Rocket - Pass Details

Date: 01 April 2020
Orbit: 538 x 621 km, 68.0° (Epoch: 26 May)

Event Time Altitude Azimuth Distance (km) Brightness Sun altitude
Rises 14:21:08 0° 10° (N) 2,792 4.8 -7.8°
Reaches altitude 10° 14:23:51 10° 27° (NNE) 1,885 3.8 -8.4°
Maximum altitude 14:26:53 19° 73° (ENE) 1,370 2.8 -9.0°
Drops below altitude 10° 14:29:54 10° 120° (ESE) 1,869 3.5 -9.6°
Enters shadow 14:30:25 - 124° (SE) 2,020 3.7 -9.7°
